shoulder
new_line
new_line
first
second
third
Al di la della Luna; Beyond the Moon; Astrophotography; Astrofotografia; Danilo Pivato
 
 
         
         
2020

Orbital Elements

Epoch 2020 May 31.0 TT = JDT 2459000.5
T 2020 May 27.35780 TT                                 Rudenko
q   0.4315380            (2000.0)            P               Q
z  -0.0266242      Peri.   67.68245     -0.39160482     +0.02582697
 +/-0.0118427      Node   260.06097     -0.63436953     +0.71648684
e   1.0114894      Incl.  110.96723     +0.66649904     +0.69712236
 
         
         
2020.05.21
2020.05.21 02h 21m U.T.
Video C/2020 F8 (Swan) 2020.05.21
2020.05.26
2020.05.26 - 02h 27m U.T.
         
         
       
       
         
         
         

 

       
 
Since: 01/01/2004
 
       
 
Since: 01/11/2010